Waarnemingen

Advertentie
Mijn weer
Cazaux, Frankrijk (7502): temperatuur & dauwpunt: 20.04.2018 11:00:00 - 26.04.2018 11:00:00 (CEST)Cazaux, Frankrijk (7502): temperatuur 5cm: 20.04.2018 11:00:00 - 26.04.2018 11:00:00 (CEST)Cazaux, Frankrijk (7502): temperatuur -20cm & temperatuur -100cm: 20.04.2018 11:00:00 - 26.04.2018 11:00:00 (CEST)Cazaux, Frankrijk (7502): windsnelheid & windstoten: 20.04.2018 11:00:00 - 26.04.2018 11:00:00 (CEST)Cazaux, Frankrijk (7502): windrichting: 20.04.2018 11:00:00 - 26.04.2018 11:00:00 (CEST)Cazaux, Frankrijk (7502): luchtdruk: 20.04.2018 11:00:00 - 26.04.2018 11:00:00 (CEST)Cazaux, Frankrijk (7502): zicht: 20.04.2018 11:00:00 - 26.04.2018 11:00:00 (CEST)Cazaux, Frankrijk (7502): neerslag: 20.04.2018 11:00:00 - 26.04.2018 11:00:00 (CEST)
Datum & Tijd tt [°C] td [°C] tt 5cm [°C] tt -20cm [°C] tt -100cm [°C] ff [km/u] ff [kn] fx [km/u] fx [kn] dd ppp [hPa] vv [km] rr [mm]
26.04.2018 11:00:00 - - - - - - - - - - - - -
26.04.2018 10:00:00 14,9 9,3 12,8 16,5 16,3 6 4 13 7 ONO 1024,5 60 0,0
26.04.2018 09:00:00 11,8 10,9 5,9 16,7 16,3 0 0 8 5 N 1024,6 20 0,0
26.04.2018 08:00:00 7,9 7,6 1,6 16,8 16,3 3 1 5 3 N 1024,7 15 0,0
26.04.2018 07:00:00 7,5 7,1 1,3 16,9 16,2 2 1 3 2 NW 1024,3 16 0,2
26.04.2018 06:00:00 8,2 7,4 2,5 17,0 16,2 0 0 6 4 N 1024,4 5 0,0
26.04.2018 05:00:00 10,3 9,5 7,0 17,2 16,2 4 2 10 5 NW 1024,6 51 0,0
26.04.2018 04:00:00 9,2 8,7 4,0 17,3 16,2 5 3 10 5 WNW 1024,7 50 0,0
26.04.2018 03:00:00 8,8 8,3 2,3 17,4 16,2 5 3 7 4 NW 1025,1 58 0,0
26.04.2018 02:00:00 8,5 7,6 2,4 17,5 16,2 3 1 4 2 W 1025,4 60 0,0
26.04.2018 01:00:00 10,0 8,9 3,9 17,5 16,2 0 0 10 5 N 1025,4 60 0,0
26.04.2018 00:00:00 9,6 8,4 4,4 17,6 16,2 5 3 8 4 WNW 1025,4 60 0,0
25.04.2018 23:00:00 11,1 8,7 6,5 17,6 16,2 6 3 13 7 NW 1025,1 60 0,0
25.04.2018 22:00:00 12,9 11,1 10,7 17,6 16,2 7 4 13 7 WNW 1024,7 60 0,0
25.04.2018 21:00:00 13,6 11,6 12,8 17,6 16,2 8 4 16 9 WNW 1023,7 60 0,0
25.04.2018 20:00:00 13,7 12,3 13,7 17,5 16,2 11 6 25 13 NW 1023,1 17 0,0
25.04.2018 19:00:00 14,0 12,9 14,6 17,4 16,2 15 8 23 13 NW 1022,6 52 0,2
25.04.2018 18:00:00 15,4 11,8 17,1 17,3 16,2 15 8 26 14 W 1022,6 18 0,0
25.04.2018 17:00:00 15,6 11,0 19,0 17,2 16,2 15 8 29 16 WNW 1022,6 58 0,0
25.04.2018 16:00:00 16,2 10,7 21,9 17,1 16,2 17 9 27 14 WNW 1022,7 60 0,0
25.04.2018 15:00:00 16,6 10,2 22,6 17,0 16,2 16 8 29 16 WNW 1022,6 60 0,0
25.04.2018 14:00:00 16,9 9,3 22,3 17,0 16,1 14 7 27 14 WNW 1022,6 60 0,0
25.04.2018 13:00:00 17,2 9,1 23,9 17,0 16,1 12 7 27 15 W 1023,0 60 0,0
25.04.2018 12:00:00 16,4 8,4 20,3 17,1 16,1 16 9 26 14 WNW 1023,1 60 0,0
25.04.2018 11:00:00 15,3 8,8 14,7 17,2 16,1 14 8 24 13 W 1023,0 60 0,0
25.04.2018 10:00:00 14,0 8,8 14,1 17,2 16,1 10 5 15 8 W 1022,5 60 0,0
25.04.2018 09:00:00 13,7 8,9 13,0 17,3 16,1 5 3 14 8 W 1021,8 20 0,0
25.04.2018 08:00:00 13,2 8,9 12,6 17,4 16,1 5 3 22 12 WNW 1020,9 60 0,0
25.04.2018 07:00:00 13,2 9,8 12,5 17,4 16,1 11 6 23 12 W 1020,5 57 0,0
25.04.2018 06:00:00 13,3 10,1 12,9 17,5 16,1 11 6 21 12 WNW 1020,2 57 0,0
25.04.2018 05:00:00 13,5 10,7 13,1 17,6 16,1 9 5 22 12 WNW 1019,5 54 0,0
25.04.2018 04:00:00 13,7 11,0 13,3 17,7 16,1 12 6 23 12 WNW 1019,4 50 0,0
25.04.2018 03:00:00 13,8 11,5 13,5 17,8 16,1 13 7 29 15 NW 1019,4 42 0,0
25.04.2018 02:00:00 14,1 11,4 13,3 17,8 16,1 14 7 31 17 NW 1019,7 38 0,0
25.04.2018 01:00:00 13,8 11,7 11,9 17,9 16,1 18 10 31 17 NW 1019,6 45 0,0
25.04.2018 00:00:00 13,2 11,6 11,8 17,9 16,1 14 7 24 13 NNW 1019,1 37 0,0
24.04.2018 23:00:00 13,5 11,0 12,3 17,9 16,1 15 8 27 14 NNW 1018,5 35 0,0
24.04.2018 22:00:00 14,5 11,1 12,9 17,8 16,1 14 7 22 12 NW 1017,7 36 0,0
24.04.2018 21:00:00 16,0 11,6 14,4 17,7 16,1 14 8 26 14 NNW 1016,9 39 0,0
24.04.2018 20:00:00 19,0 12,3 19,4 17,5 16,0 15 8 29 15 NNW 1016,4 33 0,0
24.04.2018 19:00:00 21,2 12,9 24,4 17,3 16,1 17 9 26 14 NNW 1016,6 56 0,0
24.04.2018 18:00:00 22,7 13,5 29,6 17,1 16,1 16 9 26 14 NNW 1016,8 58 0,0
24.04.2018 17:00:00 23,4 13,6 34,1 16,9 16,1 17 9 27 14 NNW 1017,2 20 0,0
24.04.2018 16:00:00 24,7 12,6 35,5 16,7 16,0 5 3 12 6 NW 1017,9 58 0,0
24.04.2018 15:00:00 23,2 13,1 34,3 16,6 16,0 4 2 19 11 N 1018,8 20 0,0
24.04.2018 14:00:00 22,2 13,0 28,7 16,5 16,0 7 4 27 14 OZO 1019,6 39 0,0
24.04.2018 13:00:00 20,7 12,4 26,4 16,5 16,0 8 4 19 11 O 1020,4 49 0,0
24.04.2018 12:00:00 18,4 12,6 24,2 16,5 16,0 8 4 16 9 O 1020,9 52 0,0
24.04.2018 11:00:00 16,3 11,4 17,4 16,6 16,0 9 5 16 8 NO 1021,2 48 0,0
24.04.2018 10:00:00 14,1 10,5 14,3 16,7 16,0 8 4 14 8 NNO 1021,4 49 0,0
24.04.2018 09:00:00 13,1 10,8 12,9 16,8 16,0 8 4 16 9 NNO 1021,5 43 0,0
24.04.2018 08:00:00 12,8 11,0 12,6 16,8 16,0 10 6 16 8 NNO 1021,2 43 0,0
24.04.2018 07:00:00 12,9 11,1 12,6 16,9 16,0 8 4 11 6 NNO 1020,8 43 0,0
24.04.2018 06:00:00 13,0 11,2 12,7 17,0 16,0 7 4 13 7 NO 1021,0 41 0,0
24.04.2018 05:00:00 13,1 11,3 12,7 17,0 16,0 4 2 20 11 NO 1021,3 45 0,0
24.04.2018 04:00:00 13,1 11,5 12,8 17,1 16,0 13 7 18 10 N 1021,3 47 0,0
24.04.2018 03:00:00 13,3 11,7 12,9 17,2 16,0 7 4 14 7 NNO 1021,7 45 0,0
24.04.2018 02:00:00 13,3 12,0 12,8 17,2 15,9 8 5 14 7 N 1021,8 35 0,0
24.04.2018 01:00:00 13,3 12,4 12,6 17,4 16,0 6 4 11 6 N 1022,1 37 0,0
24.04.2018 00:00:00 12,7 12,1 9,6 17,4 15,9 8 4 13 7 N 1022,2 35 0,0
23.04.2018 23:00:00 12,6 11,5 10,2 17,4 15,9 10 5 14 8 N 1022,3 37 0,0
23.04.2018 22:00:00 13,3 12,0 10,9 17,4 15,9 10 5 14 8 NNW 1021,9 36 0,0
23.04.2018 21:00:00 14,3 11,4 11,9 17,4 15,9 6 3 13 7 NNW 1021,2 31 0,0
23.04.2018 20:00:00 16,4 11,8 17,6 17,3 15,9 9 5 21 12 N 1021,1 20 0,0
23.04.2018 19:00:00 16,5 11,8 19,6 17,2 15,9 13 7 19 10 NW 1021,4 19 0,0
23.04.2018 18:00:00 16,7 12,8 19,6 17,1 15,9 13 7 18 10 WNW 1021,4 19 0,0
23.04.2018 17:00:00 17,3 13,4 21,6 17,1 15,9 10 5 18 10 W 1021,4 17 0,0
23.04.2018 16:00:00 16,7 13,2 20,9 17,1 15,9 12 6 18 10 NW 1021,7 17 0,0
23.04.2018 15:00:00 16,4 13,5 19,7 17,1 15,9 12 6 18 10 WNW 1022,0 16 0,0
23.04.2018 14:00:00 16,6 13,7 19,7 17,1 15,9 11 6 18 10 ZZW 1022,1 19 0,0
23.04.2018 13:00:00 16,2 13,5 18,5 17,1 15,8 9 5 16 9 ZZW 1022,3 15 0,0
23.04.2018 12:00:00 15,6 13,4 17,4 17,2 15,8 8 4 12 6 ZZW 1022,3 14 0,0
23.04.2018 11:00:00 15,2 13,6 16,5 17,2 15,8 6 3 9 5 ZZW 1022,1 13 0,0
23.04.2018 10:00:00 14,6 13,5 15,1 17,2 15,8 4 2 10 5 NNW 1021,5 11 0,0
23.04.2018 09:00:00 14,3 13,5 14,1 17,3 15,8 5 3 11 6 W 1021,4 12 0,0
23.04.2018 08:00:00 14,1 13,5 13,9 17,4 15,8 7 4 11 6 W 1020,6 13 0,0
23.04.2018 07:00:00 14,1 13,6 13,9 17,5 15,8 4 2 9 5 W 1019,8 10 0,0
23.04.2018 06:00:00 14,1 13,6 13,9 17,5 15,7 5 3 13 7 W 1019,6 11 0,0
23.04.2018 05:00:00 14,4 14,1 14,2 17,6 15,7 5 3 11 6 WZW 1019,6 9 0,0
23.04.2018 04:00:00 14,4 14,1 13,2 17,7 15,7 5 3 13 7 W 1019,3 8 0,0
23.04.2018 03:00:00 14,7 14,4 14,3 17,8 15,7 9 5 13 7 NNW 1018,6 4,7 0,6
23.04.2018 02:00:00 14,8 14,5 14,4 17,8 15,7 5 3 13 7 W 1019,4 5 0,2
23.04.2018 01:00:00 14,9 14,6 14,5 17,8 15,7 9 5 21 11 N 1018,5 7 0,4
23.04.2018 00:00:00 15,2 14,7 14,8 17,9 15,7 14 8 23 12 W 1019,1 7 1,4
22.04.2018 23:00:00 15,4 14,6 14,5 17,8 15,7 9 5 18 10 ZW 1019,7 6 0,6
22.04.2018 22:00:00 15,4 14,3 14,6 17,8 15,7 14 8 25 13 NW 1017,9 14 0,4
22.04.2018 21:00:00 16,0 13,7 15,5 17,7 15,7 16 9 23 12 NW 1016,6 20 0,0
22.04.2018 20:00:00 17,8 12,3 17,6 17,6 15,6 12 6 16 9 NW 1015,6 35 0,0
22.04.2018 19:00:00 20,9 10,1 22,2 17,5 15,7 8 4 14 8 NW 1015,5 55 0,0
22.04.2018 18:00:00 22,8 10,6 30,6 17,3 15,7 4 2 14 8 WNW 1015,3 49 0,0
22.04.2018 17:00:00 22,6 10,1 29,9 17,2 15,6 9 5 19 10 NW 1015,2 20 0,0
22.04.2018 16:00:00 21,7 12,3 30,0 17,0 15,6 10 6 20 11 W 1016,1 20 0,0
22.04.2018 15:00:00 21,5 12,3 27,8 16,9 15,6 10 5 21 12 WZW 1016,5 20 0,0
22.04.2018 14:00:00 19,8 12,3 24,3 16,9 15,6 14 8 29 16 W 1016,5 20 0,0
22.04.2018 13:00:00 19,1 12,6 24,3 16,9 15,6 18 10 31 17 WZW 1016,8 18 0,0
22.04.2018 12:00:00 19,5 14,3 26,3 16,9 15,6 21 11 30 16 ZZW 1016,3 20 0,0
22.04.2018 11:00:00 20,9 12,8 25,1 16,9 15,5 22 12 28 15 ZZW 1015,8 18 0,0
22.04.2018 10:00:00 19,9 13,1 19,2 17,0 15,5 9 5 14 7 Z 1015,6 20 0,0
22.04.2018 09:00:00 18,1 13,6 13,0 17,1 15,5 10 5 15 8 ZW 1015,4 36 0,0
22.04.2018 08:00:00 14,8 12,1 11,7 17,2 15,5 6 3 9 5 ZZW 1015,4 26 0,0
22.04.2018 07:00:00 15,1 12,0 12,7 17,2 15,5 0 0 4 2 N 1014,9 20 0,0
22.04.2018 06:00:00 15,1 13,3 12,5 17,3 15,5 3 2 6 3 Z 1015,0 20 0,0
22.04.2018 05:00:00 14,5 12,5 12,3 17,4 15,5 4 2 7 4 ZZW 1015,0 27 0,0
22.04.2018 04:00:00 15,4 13,9 11,8 17,5 15,5 6 3 9 5 Z 1015,0 20 0,0
22.04.2018 03:00:00 14,2 12,2 11,0 17,6 15,5 3 2 4 2 ZZO 1015,4 19 0,0
22.04.2018 02:00:00 15,4 12,9 10,7 17,7 15,5 0 0 5 3 N 1015,8 19 0,0
22.04.2018 01:00:00 15,2 12,5 11,1 17,7 15,5 2 1 6 3 ZZO 1015,8 31 0,0
22.04.2018 00:00:00 16,5 11,8 11,9 17,7 15,4 2 1 5 3 ZZW 1015,6 20 0,0
21.04.2018 23:00:00 17,0 10,6 11,9 17,7 15,4 0 0 6 4 N 1015,5 19 0,0
21.04.2018 22:00:00 18,7 9,7 12,8 17,6 15,4 3 1 5 3 NNW 1015,2 42 0,0
21.04.2018 21:00:00 19,7 9,0 14,7 17,5 15,4 5 3 8 4 NNW 1015,2 47 0,0
21.04.2018 20:00:00 21,7 8,9 19,7 17,3 15,4 6 4 17 9 NNW 1015,2 54 0,0
21.04.2018 19:00:00 24,5 8,4 24,7 17,2 15,4 11 6 22 12 NW 1015,2 20 0,0
21.04.2018 18:00:00 26,2 8,2 31,7 16,9 15,4 10 5 18 10 NNW 1015,3 51 0,0
21.04.2018 17:00:00 26,4 7,4 30,7 16,7 15,4 10 5 17 9 WNW 1015,6 40 0,0
21.04.2018 16:00:00 26,7 7,7 35,2 16,5 15,4 10 5 21 11 W 1016,3 50 0,0
21.04.2018 15:00:00 26,2 10,8 34,3 16,4 15,4 12 7 21 12 ZW 1016,9 49 0,0
21.04.2018 14:00:00 26,3 8,7 36,1 16,3 15,4 4 2 16 9 O 1017,0 60 0,0
21.04.2018 13:00:00 25,4 8,4 32,6 16,3 15,3 4 2 21 11 O 1017,9 49 0,0
21.04.2018 12:00:00 23,7 10,7 30,3 16,3 15,3 9 5 18 10 O 1018,6 60 0,0
21.04.2018 11:00:00 22,0 11,1 25,1 16,4 15,3 13 7 22 12 OZO 1018,9 60 0,0
21.04.2018 10:00:00 19,2 11,0 15,2 16,5 15,3 5 3 9 5 OZO 1019,1 53 0,0
21.04.2018 09:00:00 14,7 11,3 10,1 16,6 15,3 3 1 6 3 Z 1019,3 20 0,0
21.04.2018 08:00:00 11,6 10,5 6,8 16,7 15,3 0 0 8 4 N 1019,3 17 0,0
21.04.2018 07:00:00 10,2 9,3 6,0 16,9 15,3 2 1 8 4 ONO 1018,8 10 0,0
21.04.2018 06:00:00 11,6 10,7 6,5 17,0 15,3 6 4 9 5 O 1018,6 15 0,0
21.04.2018 05:00:00 11,5 10,6 6,7 17,1 15,2 2 1 8 4 Z 1018,9 13 0,0
21.04.2018 04:00:00 12,5 11,7 6,9 17,2 15,2 8 4 11 6 ONO 1019,1 15 0,0
21.04.2018 03:00:00 12,5 11,4 7,5 17,2 15,2 0 0 6 3 N 1019,2 14 0,0
21.04.2018 02:00:00 13,2 12,1 8,2 17,3 15,2 0 0 10 5 N 1019,6 15 0,0
21.04.2018 01:00:00 12,8 11,5 8,7 17,3 15,2 3 2 8 4 Z 1019,6 17 0,0
21.04.2018 00:00:00 14,5 13,2 9,4 17,4 15,2 4 2 5 3 O 1019,7 17 0,0
20.04.2018 23:00:00 15,1 12,2 10,3 17,3 15,2 0 0 5 3 N 1019,9 19 0,0
20.04.2018 22:00:00 16,3 11,9 11,3 17,3 15,2 0 0 7 4 N 1019,7 19 0,0
20.04.2018 21:00:00 18,4 11,7 14,0 17,2 15,2 5 3 13 7 W 1019,1 19 0,0
20.04.2018 20:00:00 21,7 11,7 21,7 17,0 15,1 9 5 14 8 WNW 1018,5 20 0,0
20.04.2018 19:00:00 25,7 9,9 26,6 16,8 15,1 10 6 26 14 ZZW 1018,3 18 0,0
20.04.2018 18:00:00 27,4 7,3 30,7 16,6 15,1 16 9 41 22 O 1018,4 52 0,0
20.04.2018 17:00:00 27,4 7,3 33,1 16,4 15,1 16 8 44 24 O 1018,8 60 0,0
20.04.2018 16:00:00 27,2 6,6 33,7 16,2 15,1 22 12 36 19 O 1019,5 60 0,0
20.04.2018 15:00:00 26,7 5,6 35,3 16,1 15,1 9 5 29 16 O 1020,2 19 0,0
20.04.2018 14:00:00 26,0 6,1 32,2 16,0 15,1 10 6 21 12 NO 1020,8 58 0,0
20.04.2018 13:00:00 24,9 8,4 32,8 16,0 15,1 6 4 20 11 NO 1021,5 60 0,0
20.04.2018 12:00:00 23,0 7,9 29,5 16,0 15,0 8 5 18 10 O 1022,1 59 0,0
20.04.2018 11:00:00 21,3 8,5 24,7 16,1 15,1 8 4 14 8 O 1022,0 60 0,0

tt = temperatuur
td = dauwpunt
tt 5cm = temperatuur 5cm
tt -20cm = temperatuur -20cm
tt -100cm = temperatuur -100cm
ff = windsnelheid
fx = windstoten
dd = windrichting
ppp = luchtdruk
vv = zicht
rr = neerslag

Weerstations in de omgeving